Date,TemperatureHighF,TemperatureAvgF,TemperatureLowF,DewpointHighF,DewpointAvgF,DewpointLowF,HumidityHigh,HumidityAvg,HumidityLow,PressureMaxIn,PressureMinIn,WindSpeedMaxMPH,WindSpeedAvgMPH,GustSpeedMaxMPH,PrecipitationSumIn
2013-1-1,43.9,38.5,34.2,41.0,33.6,20.8,93,83,48,30.11,29.89,2,0,10,0.05
2013-1-2,35.4,32.7,27.7,33.6,28.3,23.5,94,84,66,30.18,29.95,2,0,7,0.00
2013-1-3,39.1,30.8,25.9,25.6,23.6,20.6,87,75,52,30.25,30.16,2,0,7,0.00
2013-1-4,36.6,29.4,24.8,23.8,21.6,18.8,81,72,56,30.33,30.22,2,0,10,0.00
2013-1-5,47.5,34.1,26.5,31.2,24.7,21.7,89,70,39,30.41,30.20,2,0,13,0.00
2013-1-6,44.2,35.8,25.3,34.2,29.7,23.8,96,79,60,30.21,30.06,2,0,10,0.02
2013-1-7,49.5,32.7,22.1,30.6,24.4,20.2,93,73,41,30.43,30.18,2,0,8,0.00
2013-1-8,55.0,29.6,17.0,34.3,22.9,15.6,96,80,30,30.47,30.36,2,0,7,0.00
2013-1-9,53.7,39.9,24.7,47.9,36.0,22.7,96,86,62,30.47,30.38,2,0,9,0.00
2013-1-10,59.6,43.1,28.7,40.3,33.7,26.7,94,73,32,30.56,30.39,1,0,5,0.00
2013-1-11,47.5,43.0,37.9,45.4,39.5,35.5,97,88,68,30.39,30.10,1,0,6,0.06
2013-1-12,72.3,50.9,39.2,62.4,48.4,38.4,98,92,68,30.16,30.05,1,0,5,0.01
2013-1-13,71.1,56.7,44.2,58.4,52.0,43.4,98,86,58,30.06,29.94,2,0,8,0.00
2013-1-14,59.8,48.1,38.5,55.0,46.4,37.5,97,94,84,30.21,29.98,2,0,6,0.81
2013-1-15,43.6,40.3,37.4,42.8,39.4,36.6,98,97,96,30.22,30.05,1,0,5,1.36
2013-1-16,48.2,41.5,36.8,47.4,40.4,36.0,98,96,90,30.06,29.91,2,0,6,0.48
2013-1-17,41.6,36.4,32.1,40.3,34.9,31.2,97,95,91,30.10,29.98,1,0,6,0.58
2013-1-21,45.2,33.7,24.8,21.7,12.5,7.9,51,41,33,30.00,29.88,3,2,15,0.00
2013-1-22,25.1,18.3,12.9,8.4,1.1,-2.5,56,47,32,30.28,30.00,5,2,19,0.00
2013-1-23,28.1,20.5,12.5,19.0,7.7,-0.4,80,58,32,30.36,30.03,2,0,7,0.00
2013-1-24,33.8,21.6,10.2,24.3,10.0,2.8,84,62,40,30.52,30.00,5,1,24,0.00
2013-1-25,32.7,19.2,10.7,29.8,14.2,6.1,96,81,54,30.50,30.08,2,0,7,0.00
2013-1-26,33.0,28.9,18.6,29.6,23.0,15.4,88,78,71,30.43,30.08,2,1,13,0.00
2013-1-27,38.3,23.7,6.8,26.7,18.2,4.7,93,80,58,30.59,30.42,2,0,5,0.07
2013-1-28,62.8,42.5,30.4,48.1,38.0,26.7,96,85,57,30.46,30.15,2,0,9,0.25
2013-1-29,69.8,49.8,40.0,54.7,45.3,39.1,98,86,54,30.17,29.96,2,0,8,0.00
2013-1-30,65.9,57.4,44.9,59.7,54.5,43.6,98,90,79,29.96,29.31,4,1,15,1.88
2013-1-31,45.9,31.9,25.0,44.5,25.4,19.0,95,77,61,29.91,29.34,3,1,19,0.03
2013-2-1,34.8,20.9,13.4,29.7,11.1,4.6,93,66,47,30.37,29.79,3,1,18,0.00
2013-2-2,32.9,21.1,6.1,26.8,16.0,3.6,94,82,50,30.37,30.04,1,0,7,0.00
2013-2-3,34.8,29.7,26.2,28.3,24.5,19.7,95,81,72,30.03,29.84,3,1,19,0.02
2013-2-4,42.6,29.1,19.3,29.2,21.5,14.8,89,74,52,30.13,29.93,4,1,13,0.05
2013-2-5,45.9,35.1,27.5,37.2,31.2,25.7,95,86,66,29.96,29.89,2,0,8,0.05
2013-2-6,52.9,37.1,25.4,34.2,28.4,23.2,97,73,36,30.29,29.96,3,1,9,0.00
2013-2-7,39.3,33.8,24.6,34.1,30.7,22.9,95,88,77,30.33,30.08,2,0,6,0.03
2013-2-8,46.6,35.7,32.0,41.3,31.6,25.1,96,86,65,30.12,29.83,3,1,19,0.37
2013-2-9,47.2,31.6,20.8,25.2,19.9,16.0,89,64,29,30.37,30.11,3,1,27,0.00
2013-2-10,53.4,34.2,17.9,34.1,23.0,15.7,94,69,29,30.45,30.17,4,0,11,0.07
2013-2-11,58.5,46.7,35.7,52.5,39.9,22.2,98,79,38,30.17,29.86,4,1,14,0.03
2013-2-12,56.0,42.5,33.5,31.2,26.4,22.4,83,55,28,30.05,29.87,5,1,18,0.00
2013-2-13,41.4,38.0,33.6,39.9,34.5,29.3,95,87,80,29.92,29.58,3,0,11,0.20
2013-2-14,53.4,36.3,25.8,30.8,26.7,23.8,93,70,36,30.02,29.84,3,1,10,0.00
2013-2-15,56.5,35.1,21.7,43.6,30.1,20.5,97,84,42,30.08,29.89,4,0,18,0.03
2013-2-16,33.1,29.2,22.5,29.3,21.2,14.4,86,72,52,30.01,29.86,4,1,15,0.00
2013-2-17,24.2,18.8,15.1,17.4,8.2,2.4,81,63,50,30.14,29.93,5,2,22,0.00
2013-2-20,35.8,28.9,25.5,15.2,14.2,12.6,62,54,39,30.17,30.06,2,1,11,0.00
2013-2-21,47.0,30.5,20.1,24.7,17.3,13.3,75,60,30,30.26,30.13,4,1,16,0.00
2013-2-22,35.7,32.4,29.9,31.2,29.0,24.1,93,87,63,30.30,30.10,1,0,6,0.05
2013-2-23,56.6,38.7,32.2,45.1,35.4,30.4,96,88,63,30.13,29.80,1,0,3,0.16
2013-2-24,52.2,38.9,28.7,32.8,27.4,22.7,97,67,33,30.05,29.83,5,1,17,0.00
2013-2-25,46.4,31.3,21.0,27.7,23.3,19.0,93,74,47,30.16,30.05,2,0,7,0.00
2013-2-26,38.9,35.1,31.1,37.3,30.4,21.6,96,84,64,30.15,29.60,4,1,21,0.44
2013-2-27,44.5,37.9,32.0,36.8,33.6,29.3,97,85,65,29.75,29.59,3,0,14,0.02
2013-2-28,36.2,32.7,30.9,32.2,27.7,25.7,90,82,68,29.85,29.68,3,1,20,0.01
2013-3-1,37.6,33.6,31.1,28.7,26.5,23.2,87,75,64,29.91,29.81,3,1,15,0.00
2013-3-2,31.4,29.2,25.8,23.5,20.8,16.1,79,70,62,29.95,29.85,4,1,14,0.00
2013-3-3,29.3,25.5,23.6,19.8,17.1,14.3,78,70,62,30.01,29.91,6,1,23,0.00
2013-3-4,46.2,29.5,21.8,20.1,15.9,12.5,83,60,27,30.14,30.00,4,1,14,0.00
2013-3-5,48.5,35.3,24.7,37.0,30.1,20.3,95,83,48,30.10,29.61,3,0,7,0.31
2013-3-6,33.6,31.1,27.5,31.7,27.0,23.5,96,85,74,30.12,29.61,5,1,21,0.01
2013-3-7,35.2,32.5,30.5,28.7,27.3,25.2,88,81,68,30.28,30.11,3,1,14,0.00
2013-3-8,46.9,35.3,24.9,28.8,25.8,22.4,91,69,48,30.35,30.23,4,1,13,0.01
2013-3-9,64.9,37.8,18.9,32.8,26.7,17.5,96,71,25,30.38,30.22,2,0,7,0.00
2013-3-10,67.2,46.2,26.5,41.4,32.6,25.2,96,65,32,30.30,30.12,3,0,11,0.00
2013-3-11,57.2,48.6,38.3,49.2,41.5,32.9,95,77,63,30.16,29.81,4,1,15,0.36
2013-3-12,52.9,44.9,33.1,51.2,39.1,29.0,97,81,54,29.97,29.68,4,1,16,0.54
2013-3-13,38.8,32.9,26.8,31.5,25.9,17.8,92,76,49,30.16,29.96,5,1,23,0.02
2013-3-14,45.3,31.6,24.0,20.1,17.4,14.7,78,58,32,30.28,30.15,5,2,30,0.00
2013-3-15,61.2,39.9,23.4,37.6,27.9,18.8,89,65,38,30.19,29.86,3,1,14,0.00
2013-3-16,74.3,48.9,29.3,53.5,41.8,27.5,97,80,39,29.87,29.59,5,1,17,0.06
2013-3-17,50.6,44.4,35.1,48.4,42.2,33.6,96,92,86,30.12,29.83,2,0,7,0.17
2013-3-18,35.0,33.1,31.4,33.5,31.6,30.1,96,94,91,30.13,29.88,2,0,8,0.28
2013-3-19,56.5,42.0,30.5,37.8,23.7,3.7,98,58,14,30.02,29.82,6,2,25,0.01
2013-3-20,50.1,35.9,20.9,29.4,15.5,5.4,87,48,20,30.06,29.77,4,1,17,0.00
2013-3-21,31.1,25.7,21.3,27.1,16.2,11.4,88,67,47,30.01,29.77,4,1,20,0.00
2013-3-22,21.2,18.2,14.7,11.9,10.8,9.5,83,73,65,30.03,29.99,1,0,4,0.00
2013-3-23,53.6,35.3,20.2,28.8,23.1,17.0,90,65,36,30.06,29.91,3,0,10,0.00
2013-3-24,37.7,32.5,26.1,33.1,28.6,22.8,93,86,58,29.94,29.54,3,0,11,0.07
2013-3-25,39.2,32.4,28.2,30.9,26.9,23.9,95,81,57,29.78,29.50,4,1,22,0.20
2013-3-26,40.0,34.0,31.2,29.9,27.3,25.3,86,76,63,30.13,29.78,3,1,15,0.14
2013-3-27,41.2,33.7,29.7,29.3,25.9,23.2,84,73,56,30.24,30.12,4,1,19,0.03
2013-3-28,47.8,36.8,26.9,28.1,25.4,21.9,86,65,41,30.28,30.20,4,1,16,0.00
2013-3-29,56.3,36.9,22.5,31.5,25.2,20.8,96,68,31,30.33,30.17,4,1,15,0.00
2013-3-30,63.5,40.7,21.9,36.1,28.5,20.3,96,68,28,30.27,30.05,3,0,9,0.00
2013-3-31,54.5,45.1,38.3,51.1,42.5,33.5,96,91,81,30.06,29.76,1,0,5,0.37
2013-4-1,52.3,42.5,33.5,46.0,37.6,28.3,98,84,56,30.00,29.82,4,1,15,0.05
2013-4-2,50.9,38.2,27.2,29.3,20.6,13.3,81,53,23,30.17,30.00,5,1,17,0.00
2013-4-3,53.2,35.6,20.0,25.7,18.8,9.3,94,58,20,30.34,30.18,3,1,13,0.00
2013-4-4,42.1,32.9,25.8,31.4,23.8,16.1,95,72,39,30.35,30.01,3,0,8,0.01
2013-4-5,60.3,42.6,31.5,40.7,33.2,28.6,97,74,35,30.05,29.92,4,1,16,0.71
2013-4-6,67.0,44.9,25.2,44.3,32.5,24.0,97,68,29,30.24,30.06,3,0,10,0.00
2013-4-7,73.5,52.3,30.9,45.8,38.4,28.6,93,63,30,30.18,29.98,4,1,13,0.00
2013-4-8,78.9,57.3,36.5,51.8,44.8,35.2,97,69,33,30.11,29.93,5,1,14,0.00
2013-4-9,85.1,62.3,40.4,55.4,49.0,39.1,97,67,33,30.13,29.96,4,1,12,0.00
2013-4-10,89.0,66.4,45.0,59.8,50.8,43.9,97,65,23,30.03,29.82,4,1,13,0.00
2013-4-11,82.7,65.4,47.7,60.1,53.4,46.3,97,70,35,29.86,29.63,4,1,14,0.01
2013-4-12,72.3,61.7,52.0,61.6,52.4,36.7,98,75,32,29.79,29.53,4,1,21,1.13
2013-4-13,69.7,55.4,42.0,40.0,35.4,30.6,76,50,26,29.96,29.78,6,2,20,0.00
2013-4-14,76.3,56.0,33.5,46.7,38.0,32.0,96,58,26,30.07,29.94,5,1,15,0.00
2013-4-15,62.2,53.3,49.5,53.4,50.5,41.7,96,91,47,30.18,30.00,3,0,9,0.57
2013-4-16,82.3,64.0,53.5,61.6,56.3,52.4,97,79,46,30.24,30.07,2,0,9,0.00
2013-4-17,76.3,62.0,53.0,62.6,57.0,51.6,97,85,56,30.16,30.05,2,0,8,0.14
2013-4-18,77.3,63.9,51.6,63.4,56.1,50.5,98,78,47,30.08,29.88,4,1,17,0.00
2013-4-19,68.5,60.8,44.3,62.6,56.0,36.2,94,85,72,29.87,29.58,4,1,16,0.65
2013-4-20,58.9,45.5,32.9,36.9,30.8,26.1,89,59,32,30.30,29.83,5,2,18,0.00
2013-4-21,59.9,43.3,28.0,37.7,31.8,26.7,96,68,37,30.48,30.30,3,0,10,0.00
2013-4-22,62.5,46.6,30.8,36.4,31.4,22.8,93,60,24,30.45,30.23,3,1,10,0.00
2013-4-23,74.8,52.9,33.7,47.6,39.9,31.6,94,67,29,30.29,30.02,2,0,7,0.00
2013-4-24,76.8,55.8,39.2,56.9,48.3,38.2,98,79,40,30.07,29.83,4,1,19,0.49
2013-4-25,65.4,48.1,34.9,43.7,33.5,23.0,89,61,23,30.30,30.07,6,1,21,0.00
2013-4-26,68.4,48.8,29.8,43.2,35.9,28.5,97,68,26,30.43,30.27,3,0,9,0.00
2013-4-27,67.9,53.7,44.4,49.8,45.0,41.5,92,75,40,30.34,30.20,2,0,9,0.00
2013-4-28,55.6,52.1,49.7,52.4,49.7,47.8,95,92,87,30.20,29.98,2,0,14,0.42
2013-4-29,70.5,56.5,49.1,57.3,52.0,48.0,97,86,60,30.04,29.91,2,0,8,0.02
2013-4-30,74.6,61.0,52.5,59.4,54.5,51.1,97,81,54,30.15,29.97,3,0,9,0.00
2013-5-1,72.5,60.0,54.4,55.8,51.9,44.8,91,75,53,30.29,30.14,3,1,14,0.00
2013-5-2,70.4,58.7,49.2,55.3,47.9,40.0,83,68,54,30.29,30.18,3,1,9,0.00
2013-5-3,64.9,54.7,43.2,49.9,46.1,41.0,95,74,50,30.23,30.13,3,1,13,0.00
2013-5-4,65.3,53.0,45.1,47.7,43.2,39.1,81,70,46,30.15,30.03,4,1,16,0.00
2013-5-5,58.4,51.5,45.1,48.7,41.6,26.5,92,70,42,30.07,29.95,4,2,16,0.01
2013-5-6,56.3,53.3,50.6,54.1,51.3,48.4,96,93,90,29.97,29.82,4,1,21,0.97
2013-5-7,61.8,52.2,45.2,57.4,50.7,44.1,97,95,77,29.90,29.83,2,0,8,0.87
2013-5-8,61.1,50.6,44.7,55.7,49.1,43.6,98,95,79,30.00,29.88,1,0,3,0.78
2013-5-9,78.7,58.5,44.6,59.7,51.2,43.8,98,80,43,30.04,29.95,4,0,12,0.00
2013-5-10,81.9,61.2,44.6,62.9,54.6,43.8,98,82,44,30.05,29.87,2,0,9,0.16
2013-5-11,74.7,60.9,54.0,64.0,58.0,52.6,98,91,65,29.90,29.72,2,0,11,0.21
2013-5-12,60.3,51.3,38.4,52.3,39.1,30.6,96,66,37,30.02,29.80,5,1,18,0.01
2013-5-13,58.0,46.6,33.3,37.3,32.3,27.8,95,61,33,30.17,30.02,4,1,18,0.00
2013-5-14,76.7,50.5,28.1,48.6,37.3,26.9,97,67,29,30.23,29.97,2,0,9,0.00
2013-5-15,88.0,64.1,42.8,61.5,52.3,41.3,98,71,34,30.00,29.82,5,1,19,0.00
2013-5-16,82.1,64.4,48.4,63.7,55.7,47.3,98,77,44,29.96,29.85,4,1,13,0.25
2013-5-17,83.8,65.0,53.7,65.8,59.0,52.6,98,83,43,30.05,29.95,2,0,7,0.03
2013-5-18,70.6,61.7,55.5,65.3,60.0,54.7,98,94,79,30.09,30.02,1,0,6,0.17
2013-5-19,72.2,66.4,59.4,67.8,64.0,58.3,97,92,83,30.06,29.97,1,0,4,0.30
2013-5-20,82.4,66.9,58.3,69.3,62.9,57.2,98,88,59,30.05,29.93,3,0,11,0.00
2013-5-21,89.6,70.5,58.2,70.3,63.6,57.1,98,82,44,29.99,29.83,2,0,11,0.66
2013-5-22,86.9,67.3,57.6,69.8,62.1,56.7,98,86,40,29.92,29.81,2,0,8,0.10
2013-5-23,81.5,66.0,58.3,67.4,61.3,57.5,98,86,50,29.87,29.72,2,0,10,0.26
2013-5-24,59.8,53.3,42.1,57.6,45.1,35.9,96,76,45,30.18,29.79,5,2,31,0.03
2013-5-25,68.1,51.8,38.9,42.6,37.1,31.6,91,62,27,30.28,30.16,4,1,16,0.00
2013-5-26,72.3,57.0,43.4,47.8,42.4,37.1,92,63,29,30.24,30.13,3,0,12,0.00
2013-5-27,77.4,59.1,41.1,62.5,51.0,39.2,95,77,47,30.25,30.09,2,0,7,0.00
2013-5-28,86.1,67.0,49.5,66.0,58.1,48.7,98,77,35,30.16,30.04,3,0,14,0.00
2013-5-29,88.2,69.6,52.0,67.3,59.9,50.9,98,75,40,30.15,30.04,2,0,9,0.00
2013-5-30,89.5,69.0,51.0,66.7,58.8,50.2,98,75,34,30.19,30.07,3,0,9,0.00
2013-5-31,86.6,68.8,51.4,66.9,60.1,50.4,98,77,47,30.15,30.00,3,0,14,0.00
2013-6-1,86.7,68.6,54.1,71.9,62.1,53.0,98,81,56,30.05,29.90,5,0,16,0.00
2013-6-2,77.8,67.0,60.8,69.8,64.1,59.4,97,91,73,29.94,29.82,2,0,9,0.09
2013-6-3,79.5,66.5,54.8,67.8,61.0,53.4,98,84,54,29.95,29.81,3,0,16,0.00
2013-6-4,85.1,64.7,48.4,64.1,56.8,47.6,98,79,43,30.06,29.94,3,0,6,0.00
2013-6-5,76.8,66.2,56.5,66.0,60.9,55.1,98,84,64,30.07,29.96,3,0,11,0.00
2013-6-6,69.1,64.3,61.6,66.4,62.5,60.1,97,94,87,29.97,29.75,1,0,8,1.69
2013-6-7,73.2,66.1,59.5,69.4,63.9,58.1,98,93,77,29.79,29.59,3,0,13,0.27
2013-6-8,82.7,66.8,57.0,69.0,60.8,56.2,98,83,52,30.05,29.78,2,0,7,0.13
2013-6-9,87.7,70.5,57.9,69.9,63.0,56.5,98,81,42,30.10,29.96,4,0,20,0.76
2013-6-10,79.4,68.0,59.5,72.3,66.0,58.4,98,93,75,30.00,29.76,2,0,9,1.10
2013-6-11,79.7,67.3,59.2,69.2,63.2,58.2,98,88,62,29.92,29.81,4,0,11,0.51
2013-6-12,87.7,71.9,60.4,76.2,67.2,59.5,98,87,62,29.92,29.79,4,0,16,0.00
2013-6-13,83.8,69.6,61.0,73.6,66.1,60.1,98,90,67,29.81,29.53,4,0,15,0.15
2013-6-14,76.7,64.4,53.7,61.0,56.3,52.0,94,76,51,30.01,29.74,3,0,11,0.00
2013-6-15,82.9,63.7,47.7,63.9,55.4,46.9,98,78,40,30.12,29.99,3,0,9,0.00
2013-6-16,83.8,67.0,51.2,71.3,61.5,50.1,98,84,59,30.06,29.93,3,0,14,0.24
2013-6-17,88.3,72.6,62.4,73.2,66.4,61.5,98,83,53,29.99,29.82,2,0,10,0.03
2013-6-18,75.3,66.5,59.0,70.1,64.1,57.9,97,92,72,29.88,29.75,2,0,10,0.45
2013-6-19,83.3,67.4,58.6,70.8,62.9,57.5,98,87,51,30.08,29.88,1,0,5,0.23
2013-6-20,83.0,69.0,61.8,70.4,64.5,60.9,98,87,61,30.18,30.08,2,0,9,0.00
2013-6-21,86.9,70.2,56.6,69.3,63.3,55.8,98,81,49,30.21,30.11,1,0,7,0.00
2013-6-22,87.9,67.9,51.7,68.6,59.5,50.9,98,78,42,30.21,30.05,1,0,6,0.00
2013-6-23,89.6,73.2,60.0,72.4,65.0,58.9,98,78,42,30.14,30.02,2,0,8,0.00
2013-6-24,88.3,71.5,59.3,74.1,66.2,58.4,98,85,52,30.13,30.00,1,0,7,0.00
2013-6-25,87.3,72.7,62.3,73.7,67.7,61.1,97,86,61,30.06,29.91,2,0,10,0.00
2013-6-26,89.7,70.8,63.2,74.9,67.5,62.0,97,90,57,29.95,29.82,2,0,9,0.36
2013-6-27,80.0,68.5,62.9,73.2,66.4,62.0,98,93,75,29.85,29.67,2,0,11,0.25
2013-6-28,86.3,73.4,63.2,73.6,67.0,61.5,98,82,53,29.70,29.47,3,1,14,0.01
2013-6-29,85.4,69.4,57.4,71.1,63.2,56.6,98,83,52,29.67,29.53,2,0,7,0.00
2013-6-30,89.1,69.9,59.3,72.5,64.3,58.2,98,85,45,29.78,29.65,1,0,7,1.17
2013-7-1,83.9,71.4,64.9,73.2,67.0,64.0,98,87,60,29.90,29.74,2,0,9,0.01
2013-7-2,77.6,69.3,66.4,72.5,67.6,65.4,98,95,78,30.08,29.88,2,0,6,0.81
2013-7-3,74.4,69.0,66.0,72.4,68.1,65.1,99,97,90,30.16,30.06,1,0,7,2.22
2013-7-4,85.2,72.1,66.3,76.5,69.4,66.0,99,92,66,30.19,30.09,2,0,9,0.17
2013-7-5,86.8,73.4,65.4,75.9,69.2,64.5,98,88,63,30.18,30.07,3,0,12,0.16
2013-7-6,86.3,72.7,63.2,73.3,67.4,62.6,99,85,56,30.16,30.03,3,0,11,0.01
2013-7-7,86.1,70.4,65.7,75.4,67.6,63.9,98,92,62,30.10,30.00,4,0,13,0.49
2013-7-8,86.1,71.7,63.8,74.4,67.1,62.6,98,87,53,30.12,30.03,1,0,10,0.01
2013-7-9,90.9,73.9,63.0,75.1,67.6,61.9,98,83,45,30.10,29.97,1,0,6,0.00
2013-7-10,86.7,69.9,62.9,77.4,67.8,62.0,98,93,66,30.03,29.88,2,0,12,0.78
2013-7-11,82.2,71.7,65.8,74.3,69.0,64.6,98,92,71,29.90,29.80,1,0,5,0.00
2013-7-12,80.3,68.3,62.8,69.5,64.6,61.3,98,89,64,30.01,29.83,1,0,9,0.00
2013-7-13,78.1,68.9,61.8,71.6,66.1,60.7,97,91,80,30.13,29.99,1,0,6,0.01
2013-7-14,86.6,73.0,65.9,74.7,69.0,64.7,98,88,61,30.25,30.12,2,0,9,0.12
2013-7-15,92.9,75.3,64.0,76.4,68.6,63.2,99,83,48,30.29,30.18,1,0,6,0.04
2013-7-16,94.0,74.5,62.1,78.3,68.0,61.2,98,83,46,30.27,30.14,2,0,7,0.40
2013-7-17,94.3,73.4,64.6,79.4,69.7,63.7,98,90,55,30.23,30.10,4,0,12,0.09
2013-7-18,93.1,76.9,69.2,81.4,72.9,68.3,98,88,62,30.14,29.98,1,0,6,0.00
2013-7-19,92.0,74.8,66.3,78.6,71.0,65.4,98,89,58,30.03,29.88,2,0,7,1.17
2013-7-20,90.0,73.9,65.4,78.0,69.7,64.6,98,88,56,29.94,29.82,3,0,9,0.00
2013-7-21,83.9,72.4,65.1,76.5,69.6,64.2,98,92,70,29.93,29.84,2,0,12,0.35
2013-7-22,85.6,72.7,66.3,75.8,69.5,65.4,98,90,66,29.90,29.73,2,0,6,0.89
2013-7-23,85.8,72.5,65.1,74.8,68.5,63.9,98,88,62,29.76,29.67,4,0,11,0.03
2013-7-24,82.1,70.0,61.7,72.8,65.9,60.9,99,88,65,29.85,29.70,2,0,6,0.00
2013-7-25,84.2,68.3,55.7,68.5,61.7,54.3,98,82,46,30.01,29.84,2,0,7,0.00
2013-7-26,86.8,66.6,50.1,71.6,61.0,49.3,98,84,50,30.08,29.95,2,0,7,0.00
2013-7-27,72.6,66.8,64.0,70.0,65.7,63.1,98,96,91,29.99,29.86,1,0,6,0.96
2013-7-28,83.2,70.3,60.1,72.2,65.9,59.0,98,87,59,29.97,29.85,1,0,7,0.05
2013-7-29,80.1,64.5,54.9,62.1,57.3,53.9,98,81,46,30.18,29.97,2,0,10,0.00
2013-7-30,82.6,64.0,48.5,68.6,58.4,47.7,98,84,52,30.24,30.11,1,0,5,0.00
2013-7-31,70.0,64.2,60.9,66.6,62.7,60.0,98,95,87,30.13,29.96,0,0,2,0.36
2013-8-1,80.1,68.5,61.4,73.1,66.1,60.4,99,93,72,29.95,29.83,2,0,12,0.29
2013-8-2,82.8,67.9,57.2,68.4,62.2,56.6,98,84,49,29.99,29.90,2,0,8,0.00
2013-8-3,85.2,67.7,55.6,72.4,63.6,54.8,98,88,53,29.99,29.89,2,0,6,0.02
2013-8-4,80.3,68.9,58.3,65.8,62.4,57.0,98,82,52,30.03,29.89,3,0,11,0.01
2013-8-5,83.2,66.9,55.9,69.2,61.7,55.1,98,85,56,30.06,29.93,1,0,7,0.00
2013-8-6,86.0,72.8,64.5,73.3,67.3,63.0,97,84,57,29.96,29.90,1,0,6,0.00
2013-8-7,79.4,70.4,67.0,73.1,68.3,65.9,97,93,78,29.99,29.94,2,0,9,0.16
2013-8-8,83.0,71.5,67.4,75.4,69.6,66.6,98,94,74,29.98,29.93,1,0,3,1.21
2013-8-9,87.4,74.0,66.4,78.8,71.3,65.8,99,92,72,29.97,29.89,2,0,9,0.02
2013-8-10,86.5,72.9,65.1,76.4,69.8,64.5,99,91,68,30.02,29.96,2,0,9,0.03
2013-8-11,87.5,72.6,66.1,76.0,69.8,65.2,98,92,65,30.06,29.95,2,0,8,0.20
2013-8-12,86.9,73.0,64.7,74.2,68.6,64.1,99,88,56,30.02,29.89,2,0,10,0.15
2013-8-13,79.9,70.1,64.3,74.2,67.9,63.1,98,93,78,29.90,29.74,2,0,8,0.25
2013-8-14,75.4,63.2,50.3,63.0,56.1,48.9,97,80,51,30.09,29.84,2,0,12,0.00
2013-8-15,77.8,57.6,45.7,63.8,53.0,44.9,99,86,57,30.15,30.04,2,0,6,0.00
2013-8-16,78.9,59.9,46.1,63.6,54.5,45.4,99,84,56,30.17,30.06,2,0,6,0.00
2013-8-17,71.8,59.4,48.3,62.8,56.5,47.5,99,90,69,30.19,30.13,1,0,5,0.17
2013-8-18,75.1,65.1,59.7,68.9,63.0,59.1,98,94,78,30.18,30.09,1,0,4,0.19
2013-8-19,79.5,68.4,62.8,71.7,65.8,62.1,98,92,71,30.15,30.01,1,0,6,0.36
2013-8-20,84.5,70.5,63.9,74.0,67.2,63.1,98,90,62,30.13,30.05,2,0,7,0.03
2013-8-21,83.4,70.7,62.6,74.3,67.6,62.0,99,91,70,30.16,30.04,1,0,6,0.16
2013-8-22,85.5,71.0,62.1,74.1,66.8,61.5,98,88,61,30.10,29.95,2,0,9,0.01
2013-8-23,82.2,69.5,60.3,73.1,65.8,58.9,98,89,63,30.08,29.90,3,0,10,0.02
2013-8-24,81.6,64.4,53.9,64.6,57.4,53.1,98,82,43,30.29,30.08,1,0,7,0.00
2013-8-25,82.5,62.8,49.5,64.1,55.9,49.0,99,81,42,30.39,30.24,2,0,6,0.01
2013-8-26,83.3,63.4,48.9,68.8,58.1,48.1,98,85,48,30.31,30.07,1,0,5,0.00
2013-8-27,81.6,69.2,56.6,73.5,65.8,55.8,98,89,71,30.09,29.92,2,0,13,0.00
2013-8-28,86.6,72.1,65.4,74.7,69.2,64.5,99,91,64,29.97,29.81,2,0,11,0.00
2013-8-29,89.7,74.4,69.2,74.2,70.6,68.3,97,89,58,29.96,29.82,1,0,6,0.47
2013-8-30,84.6,71.7,62.9,74.3,68.4,62.3,99,90,65,29.99,29.85,3,0,7,0.01
2013-8-31,89.8,70.9,64.7,74.4,67.8,62.6,98,91,57,29.88,29.78,2,0,10,0.24
2013-9-1,80.0,69.7,64.6,74.4,67.8,63.7,98,94,80,29.84,29.75,1,0,5,0.35
2013-9-2,85.3,72.4,65.1,74.5,68.5,64.5,98,88,63,29.84,29.73,3,0,11,0.00
2013-9-3,84.4,70.2,57.6,70.7,64.7,56.5,99,84,52,29.95,29.76,3,0,12,0.00
2013-9-4,83.0,64.0,52.9,65.7,58.0,52.1,98,84,39,30.08,29.95,2,0,7,0.00
2013-9-5,83.8,65.0,52.6,64.6,58.3,51.8,99,82,44,30.11,30.03,3,0,12,0.00
2013-9-6,82.4,64.2,53.9,66.8,59.2,53.1,98,86,54,30.16,30.04,1,0,4,0.00
2013-9-7,84.5,64.4,51.6,66.0,57.8,50.8,98,82,43,30.10,29.92,2,0,8,0.00
2013-9-8,84.2,65.3,51.9,71.5,61.3,51.1,99,88,58,29.99,29.88,2,0,7,0.00
2013-9-9,82.1,66.4,56.6,71.9,63.5,55.9,98,91,70,30.13,29.99,1,0,5,0.00
2013-9-10,86.6,70.4,60.8,76.8,66.9,60.2,98,90,61,30.18,30.07,2,0,9,0.04
2013-9-11,87.6,71.2,62.6,75.5,67.7,61.7,98,90,56,30.16,30.01,2,0,8,0.00
2013-9-12,86.4,71.6,63.7,74.1,67.0,62.8,98,87,59,30.02,29.77,2,0,10,0.01
2013-9-13,73.4,63.6,49.7,63.2,55.5,47.2,98,77,44,29.93,29.73,3,0,13,0.01
2013-9-14,73.3,53.7,40.6,55.8,46.9,39.8,98,81,45,30.14,29.92,2,0,7,0.00
2013-9-15,77.7,56.4,40.8,63.4,51.5,40.0,99,86,53,30.23,30.08,2,0,7,0.00
2013-9-16,74.6,59.5,48.6,63.7,55.6,47.2,98,88,62,30.22,30.07,2,0,9,0.00
2013-9-17,72.7,54.1,44.1,56.7,50.0,43.0,98,87,54,30.33,30.22,1,0,6,0.01
2013-9-18,69.9,54.9,42.4,60.8,51.5,41.6,98,89,64,30.29,30.14,1,0,6,0.00
2013-9-19,63.0,59.7,57.6,61.6,58.5,56.2,97,96,95,30.16,30.02,0,0,0,0.00
2013-9-20,81.2,66.8,62.0,71.2,64.4,61.1,98,93,69,30.03,29.88,0,0,0,0.24
2013-9-21,68.0,63.1,57.0,66.2,62.0,56.2,98,96,93,29.89,29.64,0,0,0,0.65
2013-9-22,74.3,57.9,46.3,60.1,53.6,45.2,99,87,53,29.93,29.73,0,0,0,0.01
2013-9-23,75.5,55.3,43.5,61.7,51.1,42.7,98,87,55,30.05,29.93,0,0,0,0.00
2013-9-24,79.7,59.0,45.4,63.1,54.5,44.6,98,87,51,30.07,29.88,0,0,0,0.00
2013-9-25,68.7,58.8,52.1,62.8,56.8,51.3,98,93,74,29.94,29.83,0,0,0,0.03
2013-9-26,78.4,62.2,53.4,62.1,57.6,52.3,98,87,50,30.02,29.87,0,0,0,0.02
2013-9-27,76.0,57.2,45.9,58.9,52.2,45.1,99,85,52,30.18,30.03,0,0,0,0.00
2013-9-28,67.4,56.8,46.4,58.4,53.5,45.3,98,89,68,30.23,30.16,0,0,0,0.00
2013-9-29,74.7,54.9,42.7,60.5,51.0,41.9,99,88,57,30.18,30.01,0,0,0,0.00
2013-9-30,71.0,56.6,45.2,63.5,53.8,44.4,99,91,67,30.08,29.97,0,0,0,0.00
2013-10-1,79.1,59.7,49.3,63.9,55.3,48.2,98,87,52,30.12,30.01,0,0,0,0.01
2013-10-2,81.9,60.2,46.4,65.8,55.0,45.6,98,86,49,30.15,30.03,0,0,0,0.00
2013-10-3,79.4,61.1,48.8,66.9,57.2,48.0,98,88,57,30.14,30.02,0,0,0,0.00
2013-10-4,88.3,64.9,52.0,67.9,59.6,51.2,98,86,46,30.14,30.02,0,0,0,0.01
2013-10-5,86.7,64.9,53.9,67.1,59.8,52.9,98,86,47,30.12,29.98,0,0,0,0.00
2013-10-6,81.3,64.3,51.8,67.0,58.4,51.0,99,84,51,30.02,29.84,0,0,0,0.00
2013-10-7,66.5,59.3,44.5,63.5,55.7,42.9,98,88,64,30.05,29.73,3,0,13,1.82
2013-10-8,71.0,49.7,38.6,51.7,40.2,-99.9,100,79,45,30.25,30.04,2,-36,8,0.00
2013-10-9,71.5,49.5,37.8,49.5,42.7,37.0,98,81,37,30.28,30.16,3,0,10,0.01
2013-10-10,71.2,54.9,43.8,60.9,51.7,42.2,96,90,70,30.18,29.97,2,0,7,0.02
2013-10-11,68.1,60.9,55.7,60.8,56.9,53.1,94,87,74,29.97,29.90,2,0,10,0.00
2013-10-12,67.6,61.2,56.1,63.1,58.7,54.7,96,92,81,30.07,29.94,1,0,5,0.01
2013-10-13,67.9,61.8,58.1,62.1,59.3,57.2,98,92,81,30.20,30.06,1,0,6,0.01
2013-10-14,74.2,60.9,53.7,63.0,57.8,52.0,97,90,66,30.23,30.12,2,0,6,0.10
2013-10-15,71.8,56.6,47.9,57.3,51.9,47.1,99,86,53,30.18,30.03,1,0,5,0.01
2013-10-16,69.8,56.5,44.8,59.4,52.5,44.0,98,88,65,30.07,29.91,1,0,5,0.00
2013-10-17,65.7,58.4,52.7,63.4,56.7,49.5,98,94,87,29.94,29.74,3,0,11,0.03
2013-10-18,67.7,51.7,41.1,49.5,43.8,38.9,95,77,43,30.01,29.90,3,0,11,0.00
2013-10-19,64.3,52.6,41.0,55.8,48.2,39.7,97,86,59,29.97,29.78,2,0,9,0.00
2013-10-20,64.9,46.1,33.9,41.8,36.2,32.1,93,72,32,30.11,29.92,2,0,10,0.00
2013-10-21,70.4,45.6,29.6,47.6,38.5,28.6,98,80,37,30.17,29.96,2,0,9,0.00
2013-10-22,60.7,48.7,38.0,50.4,44.3,37.0,98,86,63,29.98,29.79,2,0,12,0.00
2013-10-23,50.3,42.7,35.9,46.2,38.8,31.4,98,86,65,29.98,29.69,5,1,19,0.05
2013-10-24,44.1,37.3,29.0,33.7,31.5,26.7,92,80,64,30.19,29.97,3,0,11,0.00
2013-10-25,42.7,34.7,24.7,33.0,28.5,22.7,96,79,55,30.39,30.19,3,0,17,0.00
2013-10-26,58.8,36.7,18.1,36.3,25.7,16.7,96,70,31,30.38,30.05,3,0,9,0.00
2013-10-27,66.3,47.1,32.8,42.0,36.3,30.5,93,69,35,30.12,29.99,3,1,13,0.00
2013-10-28,54.5,42.4,29.8,50.1,39.8,28.5,97,91,76,30.28,30.12,1,0,6,0.00
2013-10-29,67.1,55.2,47.7,55.6,50.5,46.4,98,86,59,30.34,30.21,2,0,9,0.00
2013-10-30,67.2,56.0,51.4,62.7,54.2,49.6,97,94,83,30.25,30.10,0,0,3,0.43
2013-10-31,66.5,58.8,51.8,59.5,55.0,51.0,99,88,70,30.14,29.71,3,1,17,0.01
2013-11-1,75.8,61.2,42.7,60.0,53.6,41.4,95,78,43,29.71,29.55,4,1,19,0.24
2013-11-2,60.8,48.2,36.7,46.9,38.3,31.8,98,72,40,29.95,29.67,4,1,15,0.01
2013-11-3,56.1,43.4,28.1,38.1,34.0,26.3,93,71,42,30.38,29.95,3,1,18,0.00
2013-11-4,53.9,37.6,25.1,35.9,29.6,23.9,97,76,45,30.55,30.37,1,0,5,0.00
2013-11-5,59.3,44.0,30.4,45.2,36.5,27.6,92,76,55,30.58,30.43,1,0,6,0.01
2013-11-6,68.7,52.4,45.3,53.0,47.6,43.1,97,85,55,30.43,30.07,3,0,9,0.03
2013-11-7,53.3,45.1,37.7,50.9,39.3,27.4,98,81,57,30.13,29.94,4,1,27,0.05
2013-11-8,49.6,36.1,23.9,29.9,26.1,21.7,91,69,39,30.34,30.13,5,1,25,0.00
2013-11-9,58.4,35.7,21.2,33.3,26.3,19.7,96,73,33,30.37,30.16,2,0,9,0.00
2013-11-10,61.3,46.1,28.5,38.1,30.7,25.9,93,58,27,30.27,30.08,5,1,19,0.00
2013-11-11,66.7,39.0,23.2,32.5,26.1,19.2,93,67,17,30.33,30.11,1,0,7,0.00
2013-11-12,46.6,34.1,26.9,38.3,26.4,17.7,91,74,59,30.47,30.03,4,1,17,0.00
2013-11-13,43.2,29.2,20.5,20.5,17.1,14.8,82,62,34,30.55,30.44,3,1,14,0.00
2013-11-14,60.8,30.8,15.3,25.9,18.3,13.2,94,68,20,30.48,30.31,3,0,13,0.00
2013-11-15,61.4,36.9,18.5,43.8,27.8,16.3,95,75,27,30.37,30.19,1,0,4,0.22
2013-11-16,53.6,48.1,40.9,51.0,46.6,39.6,97,95,90,30.26,30.17,0,0,3,0.03
2013-11-17,61.5,55.3,50.2,57.9,53.2,49.4,98,93,81,30.18,29.75,5,0,15,0.09
2013-11-18,61.9,51.9,41.0,57.8,39.0,27.2,98,65,31,29.98,29.74,5,2,22,0.21
2013-11-19,50.1,38.0,27.6,29.6,26.8,24.2,91,65,41,30.31,29.97,4,1,21,0.00
2013-11-20,49.3,35.6,26.4,28.8,26.2,23.1,93,71,41,30.48,30.30,2,0,10,0.00
2013-11-21,55.4,43.9,34.7,45.0,37.7,27.3,88,79,67,30.51,30.36,1,0,5,0.00
2013-11-22,63.7,54.1,46.7,55.5,50.5,43.0,96,88,72,30.37,30.05,2,0,11,0.04
2013-11-23,51.8,41.9,27.7,49.1,32.5,14.0,91,70,46,30.23,30.06,5,1,21,0.00
2013-11-24,29.4,21.9,13.6,16.7,8.0,3.1,79,56,32,30.55,30.23,4,1,22,0.00
2013-11-25,37.5,25.5,13.1,17.4,12.8,8.1,88,61,35,30.55,30.37,1,0,5,0.00
2013-11-26,40.8,34.4,28.5,40.0,32.4,16.4,97,92,52,30.37,29.65,1,0,9,1.31
2013-11-27,41.6,29.7,22.2,40.8,24.5,13.1,97,81,67,30.17,29.62,5,2,23,0.04
2013-11-28,38.8,24.8,17.2,21.8,17.3,13.2,92,74,48,30.49,30.17,3,1,18,0.00
2013-11-29,45.5,26.9,16.4,26.2,20.6,14.7,96,80,45,30.67,30.48,3,0,13,0.00
2013-11-30,42.1,25.9,16.0,27.0,20.8,14.6,96,82,52,30.67,30.39,2,0,5,0.00
2013-12-1,55.3,29.5,14.8,32.7,23.3,13.2,96,81,40,30.39,30.05,2,0,9,0.01
2013-12-2,52.0,40.2,31.1,38.3,34.3,28.3,92,80,58,30.06,29.82,1,0,7,0.00
2013-12-3,58.9,43.0,28.8,44.9,37.9,27.3,96,83,58,29.95,29.84,1,0,5,0.00
2013-12-4,66.0,51.7,44.0,52.8,47.3,41.9,94,86,61,30.03,29.91,1,0,6,0.00
2013-12-5,68.5,55.5,45.8,58.9,52.4,44.5,97,90,70,30.05,29.92,2,0,8,0.02
2013-12-6,64.2,54.4,38.9,61.5,52.5,37.3,96,93,90,30.05,29.83,3,0,17,0.61
2013-12-7,40.3,35.6,31.4,37.3,32.2,27.9,95,87,77,30.45,30.04,3,0,9,0.02
2013-12-8,34.0,30.6,27.5,31.3,28.2,25.2,95,91,82,30.44,30.23,2,0,8,0.00
2013-12-9,49.3,36.7,32.0,46.4,35.4,30.7,98,95,87,30.23,30.04,2,0,10,0.14
2013-12-10,37.2,31.8,25.1,35.4,28.7,20.7,98,89,74,30.29,29.95,4,0,16,0.24
2013-12-11,46.3,30.5,22.8,25.8,20.9,17.3,90,69,39,30.42,30.26,3,1,14,0.00
2013-12-12,34.2,27.3,20.1,21.7,13.9,5.9,74,58,32,30.42,30.30,4,1,15,0.00
2013-12-13,47.9,30.5,19.1,24.9,17.4,10.9,84,60,31,30.36,30.24,2,0,11,0.00
2013-12-14,35.5,32.9,29.4,34.2,31.0,24.9,96,93,82,30.33,29.75,0,0,4,0.32
2013-12-15,38.4,34.0,31.2,37.6,30.1,26.2,98,86,77,30.05,29.71,4,1,19,0.03
2013-12-16,45.0,33.7,24.3,34.3,28.1,22.4,93,80,63,30.15,30.02,3,0,14,0.00
2013-12-17,49.2,33.8,21.2,43.2,31.1,20.0,98,90,69,30.11,29.90,3,0,17,0.04
2013-12-18,43.3,30.0,19.4,26.8,20.9,16.7,89,70,39,30.28,30.06,5,1,23,0.01
2013-12-19,63.9,33.3,17.4,33.5,25.1,15.7,95,77,29,30.32,30.19,1,0,6,0.00
2013-12-20,63.5,39.7,26.6,46.8,33.2,25.1,96,81,31,30.20,30.06,3,0,14,0.00
2013-12-21,65.1,52.2,35.4,59.8,48.3,34.1,96,87,71,30.10,29.90,4,1,21,0.00
2013-12-22,63.9,57.7,52.9,60.6,56.0,52.1,98,94,83,30.01,29.85,4,0,16,1.03
2013-12-23,55.9,45.4,29.2,55.3,42.5,24.9,98,90,78,30.20,29.91,3,1,15,0.90
2013-12-24,34.1,26.9,14.3,25.1,18.9,9.1,86,72,55,30.47,30.18,5,1,21,0.00
2013-12-25,39.5,20.7,10.2,16.6,12.3,8.3,93,74,32,30.54,30.37,2,0,11,0.00
2013-12-26,44.1,26.7,14.4,27.7,19.3,12.3,93,76,44,30.42,30.29,3,0,16,0.00
2013-12-27,50.8,26.5,15.2,25.3,19.3,13.5,95,78,33,30.50,30.37,2,0,7,0.00
2013-12-28,55.7,30.2,14.3,33.9,23.8,12.7,95,80,31,30.45,30.17,1,0,5,0.11
2013-12-29,44.9,41.0,36.0,43.4,39.1,33.9,97,93,83,30.17,29.69,3,1,17,1.33
2013-12-30,41.2,36.3,29.2,37.1,31.8,25.4,89,84,77,30.14,29.90,3,0,17,0.00
2013-12-31,40.7,32.2,21.6,28.5,22.5,17.5,85,68,43,30.35,30.10,5,1,22,0.00
2014-1-1,52.8,29.0,17.1,30.2,20.9,15.2,95,76,30,30.40,30.13,3,0,10,0.00
2014-1-2,36.2,29.4,22.1,34.2,27.0,16.6,96,91,73,30.13,29.65,6,0,22,0.09